Edinburg, TX

5:35 AM CST on February 08, 2016 (GMT -0600)
Edinburg

Weather History for KEBG - February, 2013

Change the Weather History Date:

Sunday, February 17, 2013

  Actual Average (KMFE) Record (KMFE)
Temperature  
Mean Temperature 58 °F 65 °F  
Max Temperature 72 °F 76 °F 91 °F (1982)
Min Temperature 43 °F 55 °F 34 °F (1917)
Degree Days  
Heating Degree Days 8 3  
Month to date heating degree days 76  
Since 1 July heating degree days 503  
Cooling Degree Days 0 4  
Month to date cooling degree days 50  
Year to date cooling degree days 112  
Growing Degree Days 8 (Base 50)    
Moisture  
Dew Point 46 °F    
Average Humidity 59    
Maximum Humidity 75    
Minimum Humidity 41    
Precipitation  
Precipitation 0.00 in 0.04 in 0.91 in (1982)
Month to date precipitation 0.74  
Year to date precipitation 1.79  
Sea Level Pressure  
Sea Level Pressure 30.14 in    
Wind  
Wind Speed 10 mph (SSE)    
Max Wind Speed 26 mph    
Max Gust Speed 33 mph    
Visibility 7 miles    
Events      
T = Trace of Precipitation, MM = Missing Value Source: NWS Daily Summary

Daily Weather History Graph

Daily Weather History Graph

Search for Another Location

Airport or City:

Trip Planner

Search our weather history database for the weather conditions in past years. The results will help you decide how hot, cold, wet, or windy it might be!

Date:

Astronomy

Feb. 17, 2013 Rise Set
Actual Time 7:06 AM CST 6:26 PM CST
Civil Twilight 6:43 AM CST 6:50 PM CST
Nautical Twilight 6:15 AM CST 7:17 PM CST
Astronomical Twilight 5:48 AM CST 7:44 PM CST
Moon 11:45 AM CST (2/17) 12:40 AM CST (2/17)
Length of Visible Light 12h 07m
Length of Day
11h 20m
Waxing Crescent, 49% of the Moon is Illuminated
Feb 17
Waxing Crescent
Feb 17
First Quarter
Feb 25
Full
Mar 4
Last Quarter
Mar 11
New

Hourly Weather History & Observations

Time (CST) Temp. Windchill Dew Point Humidity Pressure Visibility Wind Dir Wind Speed Gust Speed Precip Events Conditions
12:15 AM 49.6 °F - 38.3 °F 65% 30.30 in 7.0 mi South 5.8 mph - N/A   Clear
12:35 AM 49.3 °F - 38.3 °F 66% 30.29 in 7.0 mi South 3.5 mph - N/A   Clear
12:55 AM 47.5 °F - 37.6 °F 69% 30.29 in 7.0 mi SSE 3.5 mph - N/A   Clear
1:15 AM 47.7 °F - 37.9 °F 69% 30.28 in 7.0 mi SSW 4.6 mph - N/A   Clear
1:35 AM 47.3 °F - 37.8 °F 69% 30.28 in 7.0 mi SSW 4.6 mph - N/A   Clear
1:55 AM 46.9 °F - 37.8 °F 70% 30.28 in 7.0 mi South 5.8 mph - N/A   Clear
2:15 AM 46.4 °F 43.5 °F 37.4 °F 71% 30.26 in 7.0 mi SSE 5.8 mph - N/A   Clear
2:35 AM 46.4 °F 43.5 °F 37.0 °F 70% 30.25 in 7.0 mi SSE 5.8 mph - N/A   Clear
2:55 AM 44.6 °F 43.1 °F 36.5 °F 73% 30.25 in 7.0 mi SSE 3.5 mph - N/A   Clear
3:15 AM 45.7 °F 44.4 °F 36.9 °F 71% 30.24 in 7.0 mi SSE 3.5 mph - N/A   Clear
3:35 AM 45.0 °F - 36.7 °F 73% 30.23 in 7.0 mi Calm Calm - N/A   Clear
3:55 AM 45.0 °F - 36.9 °F 73% 30.23 in 7.0 mi Calm Calm - N/A   Clear
4:15 AM 44.1 °F - 36.3 °F 74% 30.23 in 7.0 mi Calm Calm - N/A   Clear
4:35 AM 44.6 °F - 36.3 °F 73% 30.22 in 7.0 mi Calm Calm - N/A   Clear
4:55 AM 44.4 °F - 36.3 °F 73% 30.22 in 7.0 mi Calm Calm - N/A   Clear
5:15 AM 43.0 °F - 35.6 °F 75% 30.22 in 7.0 mi Calm Calm - N/A   Clear
5:35 AM 43.0 °F 41.3 °F 35.6 °F 75% 30.22 in 7.0 mi SE 3.5 mph - N/A   Clear
5:55 AM 43.0 °F - 35.6 °F 75% 30.21 in 7.0 mi Calm Calm - N/A   Clear
6:15 AM 43.7 °F - 35.6 °F 73% 30.21 in 7.0 mi Calm Calm - N/A   Clear
6:35 AM 44.4 °F - 36.0 °F 72% 30.21 in 7.0 mi Calm Calm - N/A   Clear
6:55 AM 45.5 °F 44.2 °F 37.0 °F 72% 30.21 in 7.0 mi ESE 3.5 mph - N/A   Clear
7:15 AM 45.0 °F 43.5 °F 36.5 °F 72% 30.21 in 5.0 mi ESE 3.5 mph - N/A   Haze
7:35 AM 45.7 °F 44.4 °F 37.6 °F 73% 30.22 in 5.0 mi SSE 3.5 mph - N/A   Haze
7:55 AM 48.7 °F - 40.8 °F 74% 30.22 in 5.0 mi SE 3.5 mph - N/A   Haze
8:15 AM 53.2 °F - 43.2 °F 69% 30.22 in 5.0 mi SE 6.9 mph - N/A   Haze
8:35 AM 58.1 °F - 45.1 °F 62% 30.22 in 7.0 mi SE 9.2 mph - N/A   Clear
8:55 AM 62.6 °F - 46.4 °F 55% 30.22 in 5.0 mi SE 9.2 mph - N/A   Haze
9:15 AM 65.8 °F - 47.3 °F 51% 30.22 in 7.0 mi SE 17.3 mph 21.9 mph N/A   Scattered Clouds
9:35 AM 67.6 °F - 46.9 °F 47% 30.22 in 5.0 mi SE 16.1 mph 24.2 mph N/A   Haze
9:55 AM 69.3 °F - 47.3 °F 45% 30.22 in 5.0 mi SSE 16.1 mph 21.9 mph N/A   Haze
10:15 AM 70.7 °F - 46.9 °F 43% 30.21 in 7.0 mi SE 19.6 mph 25.3 mph N/A   Mostly Cloudy
10:35 AM 71.6 °F - 46.9 °F 41% 30.21 in 7.0 mi SSE 20.7 mph 26.5 mph N/A   Mostly Cloudy
10:55 AM 71.6 °F - 47.1 °F 42% 30.20 in 7.0 mi SSE 19.6 mph 29.9 mph N/A   Overcast
11:15 AM 72.0 °F - 47.7 °F 42% 30.19 in 7.0 mi SSE 19.6 mph 27.6 mph N/A   Overcast
11:35 AM 72.5 °F - 47.3 °F 41% 30.17 in 5.0 mi SE 21.9 mph 27.6 mph N/A   Haze
11:55 AM 72.7 °F - 47.5 °F 41% 30.16 in 7.0 mi SSE 18.4 mph 27.6 mph N/A   Overcast
12:15 PM 72.5 °F - 47.8 °F 42% 30.15 in 7.0 mi SSE 20.7 mph 26.5 mph N/A   Overcast
12:55 PM 72.7 °F - 48.4 °F 42% 30.12 in 5.0 mi SE 20.7 mph 26.5 mph N/A   Haze
1:15 PM 72.9 °F - 48.7 °F 42% 30.11 in 5.0 mi SSE 19.6 mph 26.5 mph N/A   Haze
1:35 PM 72.7 °F - 48.9 °F 43% 30.10 in 5.0 mi SSE 17.3 mph 24.2 mph N/A   Haze
1:55 PM 72.7 °F - 49.3 °F 44% 30.09 in 7.0 mi SE 20.7 mph 26.5 mph N/A   Overcast
2:15 PM 72.5 °F - 49.5 °F 44% 30.07 in 7.0 mi SSE 18.4 mph 28.8 mph N/A   Overcast
2:35 PM 72.9 °F - 49.8 °F 44% 30.06 in 7.0 mi SE 23.0 mph 31.1 mph N/A   Overcast
2:55 PM 72.9 °F - 50.0 °F 44% 30.05 in 4.0 mi SSE 21.9 mph 29.9 mph N/A   Haze
3:15 PM 72.7 °F - 50.2 °F 45% 30.05 in 7.0 mi SSE 21.9 mph 27.6 mph N/A   Overcast
3:35 PM 72.7 °F - 50.2 °F 45% 30.04 in 7.0 mi SSE 21.9 mph 29.9 mph N/A   Overcast
3:55 PM 72.1 °F - 50.4 °F 46% 30.04 in 7.0 mi SSE 25.3 mph 31.1 mph N/A   Overcast
4:15 PM 72.1 °F - 50.9 °F 47% 30.03 in 7.0 mi SSE 17.3 mph 27.6 mph N/A   Overcast
4:35 PM 71.8 °F - 51.1 °F 48% 30.02 in 7.0 mi SE 26.5 mph 32.2 mph N/A   Overcast
4:55 PM 72.0 °F - 51.4 °F 48% 30.02 in 5.0 mi SSE 24.2 mph 31.1 mph N/A   Haze
5:15 PM 71.8 °F - 51.8 °F 49% 30.02 in 7.0 mi SSE 18.4 mph 27.6 mph N/A   Overcast
5:35 PM 71.1 °F - 52.2 °F 51% 30.02 in 5.0 mi SSE 25.3 mph 33.4 mph N/A   Haze
5:55 PM 70.7 °F - 52.7 °F 53% 30.02 in 7.0 mi SSE 20.7 mph 27.6 mph N/A   Overcast
6:15 PM 70.3 °F - 53.1 °F 54% 30.02 in 7.0 mi SSE 21.9 mph 32.2 mph N/A   Overcast
6:55 PM 69.8 °F - 53.6 °F 56% 30.02 in 7.0 mi SSE 19.6 mph 26.5 mph N/A   Mostly Cloudy
7:15 PM 69.3 °F - 53.8 °F 58% 30.02 in 7.0 mi SSE 20.7 mph 26.5 mph N/A   Overcast
7:35 PM 69.3 °F - 54.1 °F 59% 30.02 in 10.0 mi SSE 21.9 mph 27.6 mph N/A   Overcast
7:55 PM 69.3 °F - 54.1 °F 59% 30.02 in 7.0 mi SSE 19.6 mph 25.3 mph N/A   Overcast
8:15 PM 69.3 °F - 54.7 °F 60% 30.02 in 7.0 mi SSE 17.3 mph 25.3 mph N/A   Overcast
8:35 PM 68.4 °F - 54.9 °F 62% 30.03 in 7.0 mi SSE 16.1 mph 21.9 mph N/A   Mostly Cloudy
8:55 PM 68.2 °F - 55.4 °F 64% 30.03 in 10.0 mi SSE 15.0 mph 24.2 mph N/A   Mostly Cloudy
9:15 PM 68.4 °F - 55.6 °F 64% 30.03 in 7.0 mi SSE 16.1 mph 21.9 mph N/A   Mostly Cloudy
9:35 PM 68.9 °F - 55.8 °F 63% 30.02 in 7.0 mi SSE 17.3 mph 25.3 mph N/A   Overcast
9:55 PM 69.1 °F - 55.9 °F 63% 30.03 in 7.0 mi SSE 19.6 mph 24.2 mph N/A   Overcast
10:15 PM 69.3 °F - 56.3 °F 63% 30.03 in 7.0 mi SSE 13.8 mph 21.9 mph N/A   Overcast
10:35 PM 69.3 °F - 56.3 °F 63% 30.03 in 7.0 mi SSE 15.0 mph 25.3 mph N/A   Overcast
10:55 PM 69.4 °F - 56.5 °F 63% 30.03 in 7.0 mi SSE 13.8 mph 21.9 mph N/A   Overcast
11:15 PM 69.4 °F - 56.8 °F 64% 30.02 in 7.0 mi SSE 15.0 mph 21.9 mph N/A   Overcast
11:35 PM 69.4 °F - 57.2 °F 65% 30.01 in 10.0 mi SSE 15.0 mph 21.9 mph N/A   Overcast
11:55 PM 69.4 °F - 57.6 °F 66% 30.01 in 7.0 mi SSE 13.8 mph 21.9 mph N/A   Overcast